| time (UTC) | temp F | wind direction | speed MPH | gust MPH | rain 1hr in | rain 24hr in | rain mn in | humidity % | barometer mb |
| 20260904031459 | 79 | 117 | 0.0 | 1.0 | 0.06 | 0.06 | 0.06 | 91 | 1014.1 |
| 20260904030953 | 79 | 117 | 0.0 | 2.0 | 0.06 | 0.06 | 0.06 | 91 | 1014.1 |
| 20260904030653 | 80 | 183 | 1.0 | 2.0 | 0.05 | 0.05 | 0.05 | 91 | 1014.0 |
| 20260904030537 | 79 | 117 | 0.0 | 2.0 | 0.06 | 0.06 | 0.06 | 90 | 1014.2 |
| 20260904025435 | 80 | 148 | 1.0 | 8.0 | 0.04 | 0.04 | 0.05 | 90 | 1014.0 |
| 20260904024931 | 80 | 113 | 1.0 | 8.0 | 0.01 | 0.01 | 0.02 | 91 | 1014.4 |
| 20260904024423 | 80 | 36 | 1.0 | 3.0 | 0.00 | 0.00 | 0.00 | 90 | 1014.6 |
| 20260904023917 | 80 | 306 | 0.0 | 2.0 | 0.00 | 0.00 | 0.00 | 90 | 1014.5 |
| 20260904023411 | 80 | 198 | 0.0 | 0.0 | 0.00 | 0.00 | 0.00 | 90 | 1014.3 |
| 20260904023133 | 80 | 198 | 0.0 | 0.0 | 0.00 | 0.00 | 0.00 | 90 | 1014.2 |
| 20260904023111 | 80 | 198 | 0.0 | 0.0 | 0.00 | 0.00 | 0.00 | 90 | 1014.3 |
| 20260904021854 | 80 | 198 | 0.0 | 0.0 | 0.00 | 0.00 | 0.00 | 90 | 1014.2 |
| 20260904021347 | 80 | 198 | 0.0 | 0.0 | 0.00 | 0.00 | 0.00 | 90 | 1014.2 |
| 20260904020841 | 80 | 198 | 0.0 | 0.0 | 0.00 | 0.00 | 0.00 | 90 | 1014.3 |
| 20260904020554 | 80 | 198 | 0.0 | 0.0 | 0.00 | 0.00 | 0.00 | 90 | 1014.3 |
| 20260904015829 | 81 | 198 | 0.0 | 0.0 | 0.00 | 0.00 | 0.00 | 89 | 1014.4 |
| 20260904015323 | 81 | 198 | 0.0 | 0.0 | 0.00 | 0.00 | 0.00 | 89 | 1014.4 |
| 20260904014817 | 81 | 198 | 0.0 | 0.0 | 0.00 | 0.00 | 0.00 | 89 | 1014.4 |
| 20260904014311 | 81 | 198 | 0.0 | 0.0 | 0.00 | 0.00 | 0.00 | 89 | 1014.4 |
| 20260904013805 | 81 | 198 | 0.0 | 0.0 | 0.00 | 0.00 | 0.00 | 89 | 1014.3 |
| 20260904013300 | 81 | 198 | 0.0 | 0.0 | 0.00 | 0.00 | 0.00 | 89 | 1014.1 |
| 20260904012753 | 81 | 198 | 0.0 | 0.0 | 0.00 | 0.00 | 0.00 | 88 | 1014.1 |
| 20260904012247 | 81 | 198 | 0.0 | 0.0 | 0.00 | 0.00 | 0.00 | 88 | 1014.1 |
| 20260904011740 | 81 | 198 | 0.0 | 0.0 | 0.00 | 0.00 | 0.00 | 88 | 1014.2 |
| 20260904011235 | 81 | 198 | 0.0 | 0.0 | 0.00 | 0.00 | 0.00 | 88 | 1014.2 |
| 20260904010736 | 82 | 198 | 0.0 | 0.0 | 0.00 | 0.00 | 0.00 | 88 | 1014.3 |
| 20260904010232 | 82 | 198 | 0.0 | 0.0 | 0.00 | 0.00 | 0.00 | 87 | 1014.4 |
| 20260904005732 | 82 | 198 | 0.0 | 0.0 | 0.00 | 0.00 | 0.00 | 87 | 1014.4 |
| 20260904005235 | 82 | 198 | 0.0 | 0.0 | 0.00 | 0.00 | 0.00 | 87 | 1014.5 |
| 20260904004730 | 82 | 198 | 0.0 | 0.0 | 0.00 | 0.00 | 0.00 | 86 | 1014.5 |
| 20260904004716 | 82 | 198 | 0.0 | 0.0 | 0.00 | 0.00 | 0.00 | 86 | 1014.7 |
| 20260904003729 | 82 | 198 | 0.0 | 0.0 | 0.00 | 0.00 | 0.00 | 86 | 1014.7 |
| 20260904003229 | 82 | 198 | 0.0 | 0.0 | 0.00 | 0.00 | 0.00 | 86 | 1014.9 |
| 20260904002950 | 83 | 198 | 0.0 | 0.0 | 0.00 | 0.00 | 0.00 | 85 | 1014.9 |
| 20260904002455 | 83 | 198 | 0.0 | 0.0 | 0.00 | 0.00 | 0.00 | 85 | 1014.9 |
| 20260904001721 | 83 | 198 | 0.0 | 0.0 | 0.00 | 0.00 | 0.00 | 85 | 1014.8 |
| 20260904001221 | 83 | 198 | 0.0 | 0.0 | 0.00 | 0.00 | 0.00 | 85 | 1014.8 |
| 20260904000719 | 83 | 198 | 0.0 | 0.0 | 0.00 | 0.00 | 0.00 | 84 | 1014.8 |
| 20260904000218 | 83 | 198 | 0.0 | 0.0 | 0.00 | 0.00 | 0.00 | 84 | 1014.6 |
| 20260903235938 | 84 | 198 | 0.0 | 0.0 | 0.00 | 0.00 | 0.00 | 83 | 1014.7 |
| 20260903235437 | 84 | 198 | 0.0 | 0.0 | 0.00 | 0.00 | 0.00 | 83 | 1014.6 |
| 20260903234716 | 84 | 198 | 0.0 | 0.0 | 0.00 | 0.00 | 0.00 | 83 | 1014.5 |
| 20260903234213 | 84 | 198 | 0.0 | 0.0 | 0.00 | 0.00 | 0.00 | 82 | 1014.5 |
| 20260903233710 | 85 | 198 | 0.0 | 0.0 | 0.00 | 0.00 | 0.00 | 82 | 1014.2 |
| 20260903233210 | 85 | 198 | 0.0 | 0.0 | 0.00 | 0.00 | 0.00 | 82 | 1014.3 |
| 20260903232710 | 85 | 198 | 0.0 | 0.0 | 0.00 | 0.00 | 0.00 | 81 | 1014.2 |
| 20260903232203 | 85 | 198 | 0.0 | 0.0 | 0.00 | 0.00 | 0.00 | 81 | 1014.3 |
| 20260903231657 | 85 | 198 | 0.0 | 0.0 | 0.00 | 0.00 | 0.00 | 81 | 1014.2 |
| 20260903231151 | 86 | 198 | 0.0 | 0.0 | 0.00 | 0.00 | 0.00 | 81 | 1014.3 |
| 20260903230647 | 86 | 198 | 0.0 | 0.0 | 0.00 | 0.00 | 0.00 | 81 | 1014.3 |
| 20260903230139 | 86 | 198 | 0.0 | 0.0 | 0.00 | 0.00 | 0.00 | 80 | 1014.3 |
| 20260903225633 | 86 | 198 | 0.0 | 0.0 | 0.00 | 0.00 | 0.00 | 80 | 1014.2 |
| 20260903225127 | 86 | 198 | 0.0 | 0.0 | 0.00 | 0.00 | 0.00 | 80 | 1014.2 |
| 20260903224621 | 86 | 198 | 0.0 | 1.0 | 0.00 | 0.00 | 0.00 | 79 | 1014.2 |
| 20260903224115 | 86 | 198 | 0.0 | 1.0 | 0.00 | 0.00 | 0.00 | 79 | 1014.0 |
| 20260903223609 | 86 | 201 | 0.0 | 2.0 | 0.00 | 0.00 | 0.00 | 79 | 1014.0 |
| 20260903223103 | 86 | 205 | 0.0 | 2.0 | 0.00 | 0.00 | 0.00 | 78 | 1014.0 |
| 20260903222557 | 86 | 285 | 0.0 | 3.0 | 0.00 | 0.00 | 0.00 | 79 | 1014.0 |
| 20260903222051 | 86 | 182 | 0.0 | 3.0 | 0.00 | 0.00 | 0.00 | 78 | 1013.9 |
| 20260903221545 | 86 | 238 | 0.0 | 2.0 | 0.00 | 0.00 | 0.00 | 78 | 1013.7 |
| 20260903221039 | 88 | 238 | 0.0 | 2.0 | 0.00 | 0.00 | 0.00 | 75 | 1013.7 |
| 20260903220533 | 88 | 257 | 0.0 | 2.0 | 0.00 | 0.00 | 0.00 | 73 | 1013.7 |
| 20260903220254 | 88 | 181 | 1.0 | 6.0 | 0.00 | 0.00 | 0.00 | 74 | 1013.8 |
| 20260903215531 | 88 | 175 | 1.0 | 6.0 | 0.00 | 0.00 | 0.00 | 72 | 1013.9 |
| 20260903215252 | 88 | 139 | 0.0 | 2.0 | 0.00 | 0.00 | 0.00 | 73 | 1013.8 |
| 20260903214533 | 87 | 229 | 0.0 | 3.0 | 0.00 | 0.00 | 0.00 | 73 | 1013.9 |
| 20260903214032 | 87 | 192 | 1.0 | 3.0 | 0.00 | 0.00 | 0.00 | 73 | 1014.0 |
| 20260903213530 | 87 | 242 | 1.0 | 3.0 | 0.00 | 0.00 | 0.00 | 72 | 1014.0 |
| 20260903213030 | 87 | 286 | 1.0 | 3.0 | 0.00 | 0.00 | 0.00 | 72 | 1014.0 |
| 20260903212531 | 87 | 228 | 1.0 | 4.0 | 0.00 | 0.00 | 0.00 | 74 | 1014.0 |
| 20260903212256 | 87 | 242 | 1.0 | 4.0 | 0.00 | 0.00 | 0.00 | 71 | 1014.1 |
| 20260903211529 | 87 | 32 | 1.0 | 3.0 | 0.00 | 0.00 | 0.00 | 72 | 1014.2 |
| 20260903211030 | 87 | 343 | 1.0 | 6.0 | 0.00 | 0.00 | 0.00 | 72 | 1014.3 |
| 20260903210751 | 88 | 215 | 1.0 | 6.0 | 0.00 | 0.00 | 0.00 | 71 | 1014.3 |
| 20260903210250 | 88 | 257 | 1.0 | 5.0 | 0.00 | 0.00 | 0.00 | 72 | 1014.3 |
| 20260903205531 | 88 | 280 | 1.0 | 5.0 | 0.00 | 0.00 | 0.00 | 72 | 1014.3 |
| 20260903205032 | 88 | 264 | 1.0 | 6.0 | 0.00 | 0.00 | 0.00 | 72 | 1014.3 |
| 20260903204529 | 88 | 283 | 1.0 | 6.0 | 0.00 | 0.00 | 0.00 | 71 | 1014.3 |
| 20260903204030 | 88 | 327 | 1.0 | 9.0 | 0.00 | 0.00 | 0.00 | 75 | 1014.5 |
| 20260903203531 | 88 | 345 | 2.0 | 9.0 | 0.00 | 0.00 | 0.00 | 71 | 1014.4 |
| 20260903203026 | 88 | 221 | 1.0 | 5.0 | 0.00 | 0.00 | 0.00 | 73 | 1014.4 |
| 20260903202526 | 88 | 334 | 1.0 | 4.0 | 0.00 | 0.00 | 0.00 | 72 | 1014.5 |
| 20260903202027 | 88 | 271 | 1.0 | 4.0 | 0.00 | 0.00 | 0.00 | 72 | 1014.6 |
| 20260903201526 | 89 | 263 | 2.0 | 4.0 | 0.00 | 0.01 | 0.00 | 71 | 1014.8 |
| 20260903201248 | 89 | 225 | 2.0 | 6.0 | 0.00 | 0.01 | 0.00 | 69 | 1014.8 |
| 20260903200745 | 89 | 115 | 2.0 | 6.0 | 0.00 | 0.01 | 0.00 | 70 | 1014.9 |
| 20260903200027 | 90 | 247 | 1.0 | 4.0 | 0.00 | 0.01 | 0.00 | 68 | 1015.0 |
| 20260903195524 | 90 | 191 | 1.0 | 3.0 | 0.00 | 0.03 | 0.00 | 71 | 1015.1 |
| 20260903195025 | 89 | 355 | 1.0 | 3.0 | 0.00 | 0.04 | 0.00 | 71 | 1015.1 |
| 20260903194524 | 89 | 290 | 1.0 | 4.0 | 0.00 | 0.05 | 0.00 | 71 | 1015.2 |
| 20260903194023 | 89 | 248 | 1.0 | 4.0 | 0.00 | 0.06 | 0.00 | 70 | 1015.3 |
| 20260903193750 | 89 | 295 | 1.0 | 4.0 | 0.00 | 0.09 | 0.00 | 72 | 1015.4 |
| 20260903193020 | 89 | 169 | 1.0 | 4.0 | 0.00 | 0.11 | 0.00 | 73 | 1015.4 |
| 20260903192519 | 89 | 140 | 1.0 | 4.0 | 0.00 | 0.11 | 0.00 | 71 | 1015.6 |
| 20260903192021 | 89 | 121 | 1.0 | 4.0 | 0.00 | 0.11 | 0.00 | 71 | 1015.7 |
| 20260903191517 | 89 | 216 | 1.0 | 4.0 | 0.00 | 0.11 | 0.00 | 69 | 1015.8 |
| 20260903191018 | 89 | 204 | 1.0 | 3.0 | 0.00 | 0.11 | 0.00 | 73 | 1015.7 |
| 20260903190519 | 88 | 115 | 1.0 | 4.0 | 0.00 | 0.11 | 0.00 | 73 | 1015.8 |
| 20260903190019 | 87 | 262 | 1.0 | 4.0 | 0.00 | 0.11 | 0.00 | 74 | 1015.9 |
| 20260903185518 | 86 | 243 | 1.0 | 4.0 | 0.00 | 0.11 | 0.00 | 75 | 1016.0 |
| 20260903185236 | 85 | 45 | 1.0 | 3.0 | 0.00 | 0.11 | 0.00 | 77 | 1016.0 |
| 20260903184731 | 85 | 265 | 1.0 | 3.0 | 0.00 | 0.11 | 0.00 | 76 | 1016.0 |
| 20260903184011 | 85 | 232 | 1.0 | 4.0 | 0.00 | 0.11 | 0.00 | 77 | 1016.1 |
| 20260903183513 | 86 | 317 | 1.0 | 4.0 | 0.00 | 0.11 | 0.00 | 76 | 1016.0 |
| 20260903183013 | 85 | 227 | 1.0 | 4.0 | 0.00 | 0.11 | 0.00 | 77 | 1016.1 |
| 20260903182733 | 85 | 283 | 1.0 | 4.0 | 0.00 | 0.11 | 0.00 | 77 | 1016.2 |
| 20260903182235 | 85 | 263 | 1.0 | 4.0 | 0.00 | 0.11 | 0.00 | 78 | 1016.3 |
| 20260903181506 | 84 | 311 | 0.0 | 3.0 | 0.00 | 0.11 | 0.00 | 80 | 1015.9 |
| 20260903181219 | 85 | 119 | 0.0 | 3.0 | 0.00 | 0.11 | 0.00 | 79 | 1015.8 |
| 20260903180453 | 84 | 250 | 0.0 | 2.0 | 0.00 | 0.11 | 0.00 | 76 | 1016.1 |
| 20260903175948 | 84 | 248 | 1.0 | 2.0 | 0.00 | 0.11 | 0.00 | 77 | 1016.4 |
| 20260903175441 | 84 | 69 | 0.0 | 2.0 | 0.00 | 0.11 | 0.00 | 78 | 1016.5 |
| 20260903174934 | 85 | 296 | 0.0 | 2.0 | 0.00 | 0.11 | 0.00 | 76 | 1016.8 |
| 20260903174427 | 84 | 298 | 1.0 | 2.0 | 0.00 | 0.11 | 0.00 | 78 | 1016.8 |
| 20260903173921 | 84 | 298 | 1.0 | 2.0 | 0.00 | 0.11 | 0.00 | 76 | 1016.8 |
| 20260903173415 | 85 | 10 | 1.0 | 2.0 | 0.00 | 0.11 | 0.00 | 77 | 1016.8 |
| 20260903172909 | 85 | 274 | 1.0 | 3.0 | 0.00 | 0.11 | 0.00 | 74 | 1016.9 |
| 20260903171858 | 85 | 320 | 1.0 | 5.0 | 0.00 | 0.11 | 0.00 | 76 | 1017.2 |
| 20260903171351 | 85 | 295 | 1.0 | 5.0 | 0.00 | 0.11 | 0.00 | 76 | 1017.3 |
| 20260903170845 | 85 | 319 | 1.0 | 4.0 | 0.00 | 0.11 | 0.00 | 76 | 1017.5 |
| 20260903170339 | 86 | 320 | 1.0 | 3.0 | 0.00 | 0.11 | 0.00 | 75 | 1017.6 |
| 20260903170057 | 85 | 109 | 2.0 | 7.0 | 0.00 | 0.11 | 0.00 | 76 | 1017.6 |
| 20260903165549 | 85 | 299 | 2.0 | 7.0 | 0.00 | 0.11 | 0.00 | 73 | 1017.6 |
| 20260903164821 | 85 | 278 | 1.0 | 8.0 | 0.00 | 0.11 | 0.00 | 77 | 1017.7 |
| 20260903164315 | 86 | 267 | 1.0 | 8.0 | 0.00 | 0.11 | 0.00 | 76 | 1017.7 |
| 20260903163809 | 85 | 64 | 1.0 | 4.0 | 0.00 | 0.11 | 0.00 | 77 | 1018.0 |
| 20260903163303 | 84 | 67 | 1.0 | 5.0 | 0.00 | 0.11 | 0.00 | 78 | 1017.8 |
| 20260903163020 | 85 | 40 | 0.0 | 5.0 | 0.00 | 0.11 | 0.00 | 77 | 1017.8 |
| 20260903162251 | 84 | 36 | 0.0 | 2.0 | 0.00 | 0.11 | 0.00 | 79 | 1017.8 |
| 20260903161746 | 84 | 340 | 0.0 | 2.0 | 0.00 | 0.11 | 0.00 | 77 | 1017.8 |
| 20260903161240 | 84 | 270 | 0.0 | 3.0 | 0.00 | 0.11 | 0.00 | 77 | 1017.6 |
| 20260903160733 | 84 | 321 | 1.0 | 4.0 | 0.00 | 0.11 | 0.00 | 78 | 1017.6 |
| 20260903160228 | 83 | 313 | 0.0 | 4.0 | 0.00 | 0.11 | 0.00 | 80 | 1017.5 |
| 20260903155922 | 82 | 252 | 0.0 | 1.0 | 0.00 | 0.11 | 0.00 | 83 | 1017.8 |
| 20260903155809 | 83 | 321 | 0.0 | 1.0 | 0.00 | 0.11 | 0.00 | 81 | 1017.7 |
| 20260903154709 | 82 | 322 | 0.0 | 2.0 | 0.00 | 0.11 | 0.00 | 83 | 1017.8 |
| 20260903154203 | 81 | 270 | 0.0 | 2.0 | 0.00 | 0.11 | 0.00 | 82 | 1017.9 |
| 20260903153657 | 81 | 270 | 0.0 | 2.0 | 0.00 | 0.11 | 0.00 | 83 | 1017.8 |
| 20260903153157 | 81 | 269 | 0.0 | 2.0 | 0.00 | 0.11 | 0.00 | 84 | 1017.8 |
| 20260903152657 | 80 | 227 | 0.0 | 3.0 | 0.00 | 0.11 | 0.00 | 87 | 1017.9 |
| 20260903152158 | 80 | 247 | 0.0 | 3.0 | 0.00 | 0.11 | 0.00 | 86 | 1018.0 |
| 20260903151918 | 80 | 236 | 0.0 | 1.0 | 0.00 | 0.11 | 0.00 | 86 | 1017.9 |
| 20260903151158 | 80 | 252 | 0.0 | 2.0 | 0.00 | 0.11 | 0.00 | 87 | 1017.9 |
| 20260903150659 | 79 | 238 | 1.0 | 3.0 | 0.00 | 0.11 | 0.00 | 86 | 1018.0 |
| 20260903150155 | 80 | 313 | 1.0 | 3.0 | 0.00 | 0.11 | 0.00 | 85 | 1018.0 |
| 20260903145656 | 79 | 71 | 1.0 | 2.0 | 0.00 | 0.11 | 0.00 | 86 | 1017.9 |
| 20260903145157 | 78 | 153 | 0.0 | 2.0 | 0.00 | 0.11 | 0.00 | 89 | 1017.8 |
| 20260903145136 | 78 | 245 | 0.0 | 2.0 | 0.00 | 0.11 | 0.00 | 88 | 1017.8 |
| 20260903144642 | 78 | 146 | 0.0 | 2.0 | 0.00 | 0.11 | 0.00 | 90 | 1017.7 |
| 20260903143656 | 78 | 71 | 0.0 | 1.0 | 0.00 | 0.11 | 0.00 | 90 | 1017.5 |
| 20260903143157 | 77 | 70 | 0.0 | 1.0 | 0.00 | 0.11 | 0.00 | 91 | 1017.6 |
| 20260903142655 | 76 | 71 | 0.0 | 1.0 | 0.00 | 0.11 | 0.00 | 92 | 1017.5 |
| 20260903142155 | 76 | 71 | 0.0 | 1.0 | 0.00 | 0.11 | 0.00 | 93 | 1017.6 |
| 20260903141653 | 76 | 71 | 0.0 | 2.0 | 0.00 | 0.11 | 0.00 | 93 | 1017.6 |
| 20260903141154 | 76 | 70 | 0.0 | 2.0 | 0.00 | 0.11 | 0.00 | 93 | 1017.5 |
| 20260903140912 | 76 | 71 | 0.0 | 2.0 | 0.00 | 0.11 | 0.00 | 94 | 1017.5 |
| 20260903140142 | 76 | 5 | 0.0 | 2.0 | 0.00 | 0.11 | 0.00 | 94 | 1017.4 |
| 20260903135636 | 75 | 5 | 0.0 | 2.0 | 0.00 | 0.11 | 0.00 | 94 | 1017.7 |
| 20260903135130 | 75 | 66 | 0.0 | 2.0 | 0.00 | 0.11 | 0.00 | 95 | 1017.8 |
| 20260903134624 | 75 | 55 | 0.0 | 1.0 | 0.00 | 0.11 | 0.00 | 96 | 1017.8 |
| 20260903134338 | 75 | 106 | 0.0 | 1.0 | 0.00 | 0.11 | 0.00 | 96 | 1017.6 |
| 20260903133612 | 75 | 106 | 0.0 | 1.0 | 0.00 | 0.11 | 0.00 | 96 | 1017.6 |
| 20260903133106 | 75 | 70 | 0.0 | 1.0 | 0.00 | 0.11 | 0.00 | 96 | 1017.7 |
| 20260903132600 | 75 | 54 | 0.0 | 2.0 | 0.00 | 0.11 | 0.00 | 96 | 1017.8 |
| 20260903132313 | 74 | 49 | 0.0 | 2.0 | 0.00 | 0.11 | 0.00 | 96 | 1017.8 |
| 20260903131548 | 74 | 57 | 0.0 | 1.0 | 0.00 | 0.11 | 0.00 | 96 | 1018.0 |
| 20260903131043 | 74 | 27 | 1.0 | 4.0 | 0.00 | 0.11 | 0.00 | 96 | 1018.2 |
| 20260903130536 | 74 | 91 | 1.0 | 4.0 | 0.00 | 0.11 | 0.00 | 96 | 1018.2 |
| 20260903130029 | 73 | 85 | 1.0 | 3.0 | 0.00 | 0.11 | 0.00 | 96 | 1018.3 |
| 20260903125524 | 73 | 107 | 1.0 | 7.0 | 0.00 | 0.11 | 0.00 | 96 | 1018.3 |
| 20260903125018 | 73 | 67 | 1.0 | 7.0 | 0.00 | 0.11 | 0.00 | 96 | 1018.3 |
| 20260903124514 | 73 | 61 | 1.0 | 3.0 | 0.00 | 0.11 | 0.00 | 96 | 1018.4 |
| 20260903124013 | 73 | 82 | 0.0 | 3.0 | 0.00 | 0.11 | 0.00 | 96 | 1018.5 |
| 20260903123735 | 73 | 75 | 1.0 | 3.0 | 0.00 | 0.11 | 0.00 | 96 | 1018.6 |
| 20260903123012 | 73 | 67 | 1.0 | 3.0 | 0.00 | 0.11 | 0.00 | 96 | 1018.5 |
| 20260903122509 | 73 | 93 | 1.0 | 3.0 | 0.00 | 0.11 | 0.00 | 96 | 1018.4 |
| 20260903122009 | 73 | 63 | 1.0 | 6.0 | 0.00 | 0.11 | 0.00 | 96 | 1018.4 |
| 20260903121507 | 73 | 59 | 1.0 | 6.0 | 0.00 | 0.11 | 0.00 | 96 | 1018.5 |
| 20260903121007 | 73 | 87 | 1.0 | 6.0 | 0.00 | 0.11 | 0.00 | 96 | 1018.6 |
| 20260903120728 | 73 | 170 | 2.0 | 6.0 | 0.00 | 0.11 | 0.00 | 96 | 1018.5 |
| 20260903120004 | 73 | 96 | 1.0 | 5.0 | 0.00 | 0.11 | 0.00 | 96 | 1018.5 |
| 20260903115506 | 73 | 103 | 1.0 | 5.0 | 0.00 | 0.11 | 0.00 | 96 | 1018.3 |
| 20260903115225 | 73 | 71 | 1.0 | 4.0 | 0.00 | 0.11 | 0.00 | 96 | 1018.2 |
| 20260903114504 | 73 | 87 | 0.0 | 1.0 | 0.00 | 0.11 | 0.00 | 96 | 1017.8 |
| 20260903114006 | 72 | 95 | 1.0 | 3.0 | 0.00 | 0.11 | 0.00 | 96 | 1017.6 |
| 20260903113506 | 72 | 95 | 1.0 | 3.0 | 0.00 | 0.11 | 0.00 | 96 | 1017.7 |
| 20260903113001 | 72 | 313 | 0.0 | 2.0 | 0.00 | 0.11 | 0.00 | 96 | 1017.9 |
| 20260903112503 | 72 | 192 | 0.0 | 1.0 | 0.00 | 0.11 | 0.00 | 96 | 1017.4 |
| 20260903112003 | 72 | 192 | 0.0 | 0.0 | 0.00 | 0.11 | 0.00 | 96 | 1017.3 |
| 20260903111501 | 72 | 192 | 0.0 | 0.0 | 0.00 | 0.11 | 0.00 | 96 | 1017.3 |
| 20260903111002 | 72 | 192 | 0.0 | 0.0 | 0.00 | 0.11 | 0.00 | 96 | 1017.2 |
| 20260903110502 | 72 | 192 | 0.0 | 0.0 | 0.00 | 0.11 | 0.00 | 96 | 1017.1 |
| 20260903110002 | 72 | 192 | 0.0 | 0.0 | 0.00 | 0.11 | 0.00 | 96 | 1017.0 |
| 20260903105500 | 72 | 192 | 0.0 | 0.0 | 0.00 | 0.11 | 0.00 | 96 | 1016.8 |
| 20260903105002 | 72 | 192 | 0.0 | 0.0 | 0.00 | 0.11 | 0.00 | 96 | 1016.7 |
| 20260903104500 | 72 | 192 | 0.0 | 0.0 | 0.00 | 0.11 | 0.00 | 96 | 1016.7 |
| 20260903104001 | 72 | 192 | 0.0 | 0.0 | 0.00 | 0.11 | 0.00 | 96 | 1016.6 |
| 20260903103724 | 72 | 192 | 0.0 | 0.0 | 0.00 | 0.11 | 0.00 | 96 | 1016.4 |
| 20260903103003 | 72 | 192 | 0.0 | 1.0 | 0.00 | 0.11 | 0.00 | 96 | 1016.4 |
| 20260903102500 | 72 | 192 | 0.0 | 1.0 | 0.00 | 0.11 | 0.00 | 96 | 1016.4 |
| 20260903102220 | 72 | 192 | 0.0 | 1.0 | 0.00 | 0.11 | 0.00 | 96 | 1016.4 |
| 20260903101502 | 72 | 192 | 0.0 | 1.0 | 0.00 | 0.11 | 0.00 | 96 | 1016.4 |
| 20260903100959 | 72 | 192 | 0.0 | 1.0 | 0.00 | 0.11 | 0.00 | 96 | 1016.4 |
| 20260903100722 | 72 | 192 | 0.0 | 0.0 | 0.00 | 0.11 | 0.00 | 96 | 1016.4 |
| 20260903095953 | 72 | 192 | 0.0 | 0.0 | 0.00 | 0.11 | 0.00 | 96 | 1016.5 |
| 20260903095455 | 72 | 192 | 0.0 | 0.0 | 0.00 | 0.11 | 0.00 | 96 | 1016.5 |
| 20260903094955 | 72 | 192 | 0.0 | 1.0 | 0.00 | 0.11 | 0.00 | 96 | 1016.5 |
| 20260903094450 | 72 | 192 | 0.0 | 1.0 | 0.00 | 0.11 | 0.00 | 96 | 1016.6 |
| 20260903093947 | 72 | 192 | 0.0 | 1.0 | 0.00 | 0.11 | 0.00 | 96 | 1016.6 |
| 20260903093445 | 72 | 192 | 0.0 | 1.0 | 0.00 | 0.11 | 0.00 | 96 | 1016.6 |
| 20260903092946 | 72 | 192 | 0.0 | 1.0 | 0.00 | 0.11 | 0.00 | 96 | 1016.7 |
| 20260903092444 | 72 | 172 | 0.0 | 0.0 | 0.00 | 0.11 | 0.00 | 96 | 1016.7 |
| 20260903091944 | 72 | 172 | 0.0 | 0.0 | 0.00 | 0.11 | 0.00 | 96 | 1016.7 |
| 20260903091442 | 72 | 172 | 0.0 | 0.0 | 0.00 | 0.11 | 0.00 | 95 | 1016.7 |
| 20260903090941 | 72 | 172 | 0.0 | 1.0 | 0.00 | 0.11 | 0.00 | 95 | 1016.7 |
| 20260903090442 | 72 | 172 | 0.0 | 1.0 | 0.00 | 0.11 | 0.00 | 96 | 1016.6 |
| 20260903085942 | 72 | 172 | 0.0 | 1.0 | 0.00 | 0.11 | 0.00 | 95 | 1016.6 |
| 20260903085438 | 72 | 172 | 0.0 | 1.0 | 0.00 | 0.11 | 0.00 | 96 | 1016.6 |
| 20260903084938 | 72 | 172 | 0.0 | 2.0 | 0.00 | 0.11 | 0.00 | 96 | 1016.6 |
| 20260903084436 | 72 | 172 | 0.0 | 2.0 | 0.00 | 0.11 | 0.00 | 96 | 1016.6 |
| 20260903084412 | 72 | 172 | 0.0 | 1.0 | 0.00 | 0.11 | 0.00 | 95 | 1016.7 |
| 20260903083430 | 72 | 172 | 0.0 | 1.0 | 0.00 | 0.11 | 0.00 | 95 | 1016.7 |
| 20260903083159 | 72 | 172 | 0.0 | 1.0 | 0.00 | 0.11 | 0.00 | 95 | 1016.6 |
| 20260903082426 | 72 | 172 | 0.0 | 2.0 | 0.00 | 0.11 | 0.00 | 95 | 1016.5 |
| 20260903081924 | 72 | 188 | 0.0 | 2.0 | 0.00 | 0.11 | 0.00 | 95 | 1016.5 |
| 20260903081426 | 72 | 188 | 0.0 | 0.0 | 0.00 | 0.11 | 0.00 | 95 | 1016.5 |
| 20260903080918 | 72 | 188 | 0.0 | 0.0 | 0.00 | 0.11 | 0.00 | 95 | 1016.4 |
| 20260903080640 | 73 | 188 | 0.0 | 1.0 | 0.00 | 0.11 | 0.00 | 95 | 1016.5 |
| 20260903075905 | 73 | 188 | 0.0 | 2.0 | 0.00 | 0.11 | 0.00 | 95 | 1016.5 |
| 20260903075618 | 73 | 188 | 0.0 | 2.0 | 0.00 | 0.11 | 0.00 | 95 | 1016.3 |
| 20260903075113 | 73 | 188 | 0.0 | 1.0 | 0.00 | 0.11 | 0.00 | 95 | 1016.2 |
| 20260903074346 | 73 | 188 | 0.0 | 1.0 | 0.00 | 0.11 | 0.00 | 95 | 1016.2 |
| 20260903073840 | 73 | 188 | 0.0 | 1.0 | 0.00 | 0.11 | 0.00 | 95 | 1016.2 |
| 20260903073333 | 73 | 188 | 0.0 | 1.0 | 0.00 | 0.11 | 0.00 | 95 | 1016.2 |
| 20260903072827 | 73 | 188 | 0.0 | 1.0 | 0.00 | 0.11 | 0.00 | 95 | 1016.1 |
| 20260903072321 | 73 | 188 | 0.0 | 1.0 | 0.00 | 0.11 | 0.00 | 95 | 1016.2 |
| 20260903071815 | 73 | 188 | 0.0 | 1.0 | 0.00 | 0.11 | 0.00 | 95 | 1016.2 |
| 20260903071309 | 73 | 188 | 0.0 | 1.0 | 0.00 | 0.11 | 0.00 | 95 | 1016.1 |
| 20260903070803 | 73 | 188 | 0.0 | 1.0 | 0.00 | 0.11 | 0.00 | 95 | 1016.2 |
| 20260903070515 | 73 | 185 | 0.0 | 1.0 | 0.00 | 0.11 | 0.00 | 95 | 1016.2 |
| 20260903065751 | 73 | 156 | 0.0 | 2.0 | 0.00 | 0.11 | 0.00 | 95 | 1016.1 |
| 20260903065505 | 73 | 156 | 0.0 | 2.0 | 0.00 | 0.11 | 0.00 | 95 | 1016.2 |
| 20260903064740 | 73 | 148 | 0.0 | 1.0 | 0.00 | 0.11 | 0.00 | 95 | 1016.3 |
| 20260903064723 | 73 | 148 | 0.0 | 1.0 | 0.00 | 0.11 | 0.00 | 95 | 1016.3 |
| 20260903063727 | 73 | 148 | 0.0 | 1.0 | 0.00 | 0.11 | 0.00 | 95 | 1016.4 |
| 20260903063221 | 72 | 148 | 0.0 | 1.0 | 0.00 | 0.11 | 0.00 | 95 | 1016.5 |
| 20260903062715 | 72 | 148 | 0.0 | 1.0 | 0.00 | 0.11 | 0.00 | 95 | 1016.4 |
| 20260903062437 | 72 | 148 | 0.0 | 1.0 | 0.00 | 0.11 | 0.00 | 95 | 1016.6 |
| 20260903062147 | 72 | 148 | 0.0 | 1.0 | 0.00 | 0.11 | 0.00 | 95 | 1016.5 |
| 20260903061157 | 72 | 148 | 0.0 | 1.0 | 0.00 | 0.11 | 0.00 | 95 | 1016.6 |
| 20260903060651 | 72 | 148 | 0.0 | 1.0 | 0.00 | 0.11 | 0.00 | 95 | 1016.8 |
| 20260903060145 | 72 | 148 | 0.0 | 1.0 | 0.00 | 0.11 | 0.00 | 95 | 1016.8 |
| 20260903055900 | 72 | 148 | 0.0 | 2.0 | 0.00 | 0.11 | 0.00 | 95 | 1016.9 |
| 20260903055133 | 72 | 148 | 1.0 | 2.0 | 0.00 | 0.11 | 0.00 | 95 | 1017.0 |
| 20260903054627 | 72 | 148 | 1.0 | 2.0 | 0.00 | 0.11 | 0.00 | 95 | 1017.0 |
| 20260903054121 | 72 | 148 | 1.0 | 3.0 | 0.00 | 0.11 | 0.00 | 94 | 1017.0 |
| 20260903053615 | 72 | 139 | 1.0 | 3.0 | 0.00 | 0.11 | 0.00 | 95 | 1017.1 |
| 20260903053109 | 72 | 153 | 0.0 | 3.0 | 0.00 | 0.11 | 0.00 | 94 | 1017.2 |
| 20260903052832 | 72 | 77 | 0.0 | 1.0 | 0.00 | 0.11 | 0.00 | 94 | 1017.3 |
| 20260903052058 | 72 | 77 | 0.0 | 1.0 | 0.00 | 0.11 | 0.00 | 94 | 1017.3 |
| 20260903052035 | 72 | 77 | 0.0 | 1.0 | 0.00 | 0.11 | 0.00 | 94 | 1017.2 |
| 20260903051045 | 72 | 77 | 0.0 | 1.0 | 0.00 | 0.11 | 0.00 | 94 | 1017.2 |
| 20260903050542 | 72 | 77 | 0.0 | 0.0 | 0.00 | 0.11 | 0.00 | 94 | 1017.1 |
| 20260903050033 | 72 | 77 | 0.0 | 0.0 | 0.00 | 0.11 | 0.00 | 94 | 1017.1 |
| 20260903045753 | 72 | 77 | 0.0 | 0.0 | 0.00 | 0.11 | 0.00 | 94 | 1017.2 |
| 20260903045020 | 72 | 77 | 0.0 | 1.0 | 0.00 | 0.11 | 0.00 | 94 | 1017.3 |
| 20260903044514 | 72 | 77 | 0.0 | 1.0 | 0.00 | 0.11 | 0.00 | 94 | 1017.2 |
| 20260903044009 | 72 | 77 | 0.0 | 0.0 | 0.00 | 0.11 | 0.00 | 94 | 1017.2 |
| 20260903043723 | 72 | 77 | 0.0 | 1.0 | 0.00 | 0.11 | 0.00 | 94 | 1017.1 |
| 20260903042958 | 72 | 77 | 0.0 | 1.0 | 0.00 | 0.11 | 0.00 | 94 | 1017.2 |
| 20260903042712 | 72 | 77 | 0.0 | 0.0 | 0.00 | 0.11 | 0.00 | 94 | 1017.2 |
| 20260903042209 | 72 | 77 | 0.0 | 1.0 | 0.00 | 0.11 | 0.00 | 93 | 1017.2 |
| 20260903041439 | 72 | 77 | 0.0 | 1.0 | 0.00 | 0.11 | 0.00 | 93 | 1017.3 |
| 20260903040933 | 72 | 77 | 0.0 | 0.0 | 0.00 | 0.11 | 0.00 | 93 | 1017.3 |
| 20260903040427 | 72 | 77 | 0.0 | 1.0 | 0.00 | 0.11 | 0.00 | 93 | 1017.4 |
| 20260903035921 | 72 | 77 | 0.0 | 1.0 | 0.00 | 0.11 | 0.11 | 93 | 1017.4 |
| 20260903035415 | 72 | 77 | 0.0 | 1.0 | 0.00 | 0.11 | 0.11 | 93 | 1017.3 |
| 20260903035401 | 72 | 77 | 0.0 | 1.0 | 0.00 | 0.11 | 0.11 | 93 | 1017.4 |
| 20260903034402 | 72 | 10 | 0.0 | 1.0 | 0.00 | 0.11 | 0.11 | 93 | 1017.3 |
| 20260903033857 | 72 | 10 | 0.0 | 1.0 | 0.00 | 0.11 | 0.11 | 93 | 1017.3 |
| 20260903033614 | 72 | 10 | 0.0 | 0.0 | 0.00 | 0.11 | 0.11 | 93 | 1017.2 |
| 20260903032845 | 72 | 10 | 0.0 | 0.0 | 0.00 | 0.11 | 0.11 | 93 | 1017.1 |
| 20260903032339 | 73 | 10 | 0.0 | 0.0 | 0.00 | 0.11 | 0.11 | 93 | 1017.1 |
| 20260903031833 | 73 | 10 | 0.0 | 0.0 | 0.00 | 0.11 | 0.11 | 93 | 1017.2 |